Lid_Strength_Index
16 14 13 14 14 14 15 16 17 15 13 11 10 9 9 8 6 6 7 7 7 6 6 6 6 5 4 2 2 1 2 2 2 1 1 1 1 1 0 0 0 0 0 0
17 13 14 13 11 11 12 12 12 12 13 8 8 8 9 8 8 7 6 6 7 7 6 6 6 6 5 5 2 2 2 2 1 1 1 2 2 1 1 1 1 1 1 0
19 15 15 17 13 12 12 11 11 14 11 8 8 9 9 9 9 8 8 6 7 7 7 6 5 6 6 6 4 2 2 2 2 1 1 1 2 2 2 1 1 1 1 1
18 18 20 16 9 9 11 10 9 10 9 9 9 8 8 8 9 9 8 7 5 7 6 6 4 5 6 6 6 5 4 2 1 1 2 1 1 2 2 2 1 1 1 1
17 18 16 13 10 11 12 12 9 9 9 8 8 7 8 8 8 8 8 7 7 5 5 5 5 4 5 6 7 7 7 6 5 3 2 2 2 2 2 2 2 2 1 1
17 17 18 14 10 8 8 15 8 8 9 9 9 11 9 8 8 7 7 7 8 7 6 6 5 4 5 6 7 7 7 7 6 5 3 3 2 2 1 2 2 2 2 2
16 17 14 10 9 8 15 14 8 8 9 9 10 9 8 8 8 8 7 7 8 8 7 6 6 5 5 5 7 6 7 6 6 5 5 3 3 2 1 1 1 1 1 2
16 16 17 8 9 12 11 9 9 9 9 10 10 9 8 8 8 8 8 7 7 9 9 7 5 5 5 6 6 6 6 7 6 5 4 3 3 1 1 1 2 2 2 2
14 14 11 9 10 9 10 11 10 10 10 10 10 10 9 9 9 9 8 8 7 8 9 9 6 5 6 5 5 7 7 6 6 5 5 4 4 2 2 2 2 3 2 2
14 12 10 9 9 8 9 9 8 8 9 9 10 9 9 9 9 8 8 9 8 8 9 10 8 6 5 5 6 7 7 7 7 7 6 4 3 3 2 2 2 3 3 3
14 12 11 9 9 9 8 8 8 7 7 8 9 9 9 8 8 8 8 8 8 8 8 9 9 8 6 6 6 8 8 8 7 7 7 5 4 4 3 2 2 2 2 2
14 11 11 11 9 8 9 9 8 8 8 7 7 8 7 7 7 7 7 7 7 8 8 8 8 8 7 6 7 8 7 7 8 8 7 5 4 4 7 9 11 13 11 5
11 11 10 9 9 8 9 8 7 7 7 7 5 6 6 7 7 7 7 6 6 6 7 7 7 7 5 6 8 8 8 8 8 8 7 6 5 4 5 4 9 11 14 13
10 9 10 9 9 8 8 7 6 6 6 6 5 5 5 6 7 7 7 6 5 5 6 6 6 6 4 5 6 8 8 9 8 7 7 6 6 4 3 4 4 3 8 12
9 8 8 8 8 8 7 7 7 7 6 6 4 5 5 6 7 7 6 5 5 5 5 5 6 6 4 5 6 7 7 8 8 7 7 7 6 4 2 4 5 4 3 6
8 8 8 8 8 7 7 6 7 7 6 5 5 5 5 5 7 6 5 5 5 6 4 4 5 4 5 6 6 7 7 8 8 7 6 4 4 4 4 4 6 5 4 4
7 8 8 8 7 7 6 6 6 6 6 5 4 4 5 6 7 7 6 5 5 4 4 4 4 4 6 6 7 6 7 8 7 7 5 5 5 6 6 6 6 7 7 9
5 5 6 6 6 6 6 6 5 5 6 4 4 4 6 7 8 7 7 6 5 6 6 5 4 4 6 6 7 7 8 8 7 8 7 6 7 7 8 8 7 8 9 10
5 5 4 5 5 5 5 6 5 5 4 5 4 5 6 7 7 7 7 7 7 7 6 5 4 5 6 6 4 7 7 8 8 9 9 9 8 9 10 10 9 10 11 11
4 4 4 4 3 4 4 5 5 5 5 4 3 5 6 7 7 7 7 8 7 6 5 5 5 6 6 6 5 7 7 8 8 8 8 10 10 11 11 12 12 12 13 13
4 4 4 4 4 3 3 4 4 5 5 4 5 5 6 6 6 7 8 8 7 6 5 4 5 6 6 6 7 8 8 9 9 10 10 10 11 12 13 13 13 14 15 15
5 5 4 4 4 3 3 3 4 4 5 4 4 5 6 6 7 7 6 7 6 6 6 6 6 6 7 7 8 8 8 9 9 10 11 11 12 13 14 14 15 15 16 16
4 4 3 3 4 3 3 3 3 4 4 4 4 5 5 5 6 7 8 6 6 6 7 7 6 6 7 8 8 9 9 9 10 11 11 12 12 13 14 14 15 15 16 17
5 4 3 3 3 3 4 4 4 4 4 2 3 3 4 5 5 5 5 5 5 5 6 7 7 7 8 8 9 9 9 9 10 11 11 12 12 13 14 14 15 15 16 16
4 4 3 3 4 3 4 3 4 3 3 2 2 2 3 3 4 4 4 5 5 5 6 6 7 7 8 9 9 9 10 10 10 11 11 12 12 13 13 13 14 14 15 15
5 4 4 3 3 3 2 3 4 3 3 3 3 3 2 3 3 3 3 4 4 5 5 6 6 7 8 8 8 9 9 9 10 10 11 11 12 13 13 13 13 14 14 14
4 3 4 3 2 3 2 3 4 4 4 5 5 5 5 4 5 4 4 4 4 4 5 5 6 6 7 7 8 8 8 9 10 10 10 11 12 12 12 13 13 13 14 14